Tracking 17782 objects as of 25-July-2016
HD Live streaming from Space Station
objects crossing your sky now

OXP 1

Track OXP 1 now!
10-day predictions
OXP 1 is classified as:


NORAD ID: 22489
Int'l Code: 1993-009A
Perigee: 720.4 km
Apogee: 779.2 km
Inclination: 25.0 °
Period: 99.7 minutes
Semi major axis: 7120 km
RCS: 1.9581 m2 (large)
Launch date: February 9, 1993
Source: United States (US)
Launch site: AIR FORCE EASTERN TEST RANGE (AFETR)
Your satellite tracking list
Your tracking list is empty





NASA's NSSDC Master Catalog

Two Line Element Set (TLE):
1 22489U 93009A   16207.15964949  .00000254  00000-0  19672-4 0  9999
2 22489  24.9637 163.6736 0041262 122.3989 238.0520 14.44804115238183
Source of the keplerian elements: AFSPC

N2YO: 804